Simultaneous Nadir Overpasses (SNOs) Predictions

Prediction of SNOs between GOES-17 and NOAA-19 Satellite Orbit:

Table of predicted SNOs for the next 14.0 days since TLE Epoch: 3/27/2021
Index Date Time (GOES-17) GOES-17 Lat,Lon NOAA-19 Lat,Lon Distance(km) Time Diff (sec)
1 03/27/2021 04:01:53 -0.02,-137.21 -0.67,-140.04 322.85 80
2 03/28/2021 03:47:29 -0.02,-137.21 0.00,-137.17 4.47 80
3 03/29/2021 03:35:46 -0.02,-137.21 0.67,-134.31 331.21 80
4 03/31/2021 15:59:15 0.02,-137.21 0.47,-139.24 230.55 80
5 04/01/2021 15:44:52 0.01,-137.21 -0.18,-136.37 95.49 80
6 04/02/2021 15:33:09 0.01,-137.20 -0.84,-133.51 421.32 80
7 04/04/2021 04:08:28 -0.02,-137.17 -1.00,-141.31 473.69 80
8 04/05/2021 03:56:44 -0.02,-137.16 -0.32,-138.45 148.02 80
9 04/06/2021 03:42:21 -0.02,-137.14 0.35,-135.59 177.62 80
10 04/08/2021 16:05:52 0.02,-137.12 0.84,-140.51 387.70 80
11 04/09/2021 15:51:29 0.02,-137.11 0.12,-137.66 62.37 80
